FW1341 Weather Reports


Display with metric or nautical units.
time (UTC)temp
F
wind
direction
speed
MPH
gust
MPH
rain 1hr
in
rain 24hr
in
rain mn
in
humidity
%
barometer
mb
20260901040153 80 215 1.0 3.0 0.00 0.00 0.00 86 1015.0
20260901035652 80 224 1.0 3.0 0.00 0.00 0.00 85 1015.0
20260901035146 80 235 1.0 4.0 0.00 0.00 0.00 86 1014.9
20260901034646 80 203 2.0 4.0 0.00 0.00 0.00 86 1014.9
20260901034144 80 211 2.0 4.0 0.00 0.00 0.00 86 1014.9
20260901033142 80 198 1.0 3.0 0.00 0.00 0.00 85 1015.0
20260901032644 80 187 0.0 1.0 0.00 0.00 0.00 84 1015.0
20260901031135 80 203 1.0 4.0 0.00 0.00 0.00 83 1015.0
20260901030635 80 195 2.0 4.0 0.00 0.00 0.00 83 1015.1
20260901030136 80 210 2.0 4.0 0.00 0.00 0.00 83 1015.0
20260901025136 80 195 1.0 5.0 0.00 0.00 0.00 84 1015.1
20260901024636 80 162 1.0 2.0 0.00 0.00 0.00 84 1015.0
20260901024130 80 205 0.0 2.0 0.00 0.00 0.00 84 1015.1
20260901023631 80 173 0.0 2.0 0.00 0.00 0.00 84 1015.1
20260901023131 80 174 0.0 2.0 0.00 0.00 0.00 84 1015.0
20260901022632 80 212 0.0 2.0 0.00 0.00 0.00 84 1014.9
20260901022132 80 212 0.0 2.0 0.00 0.00 0.00 84 1014.9
20260901021633 80 162 0.0 1.0 0.00 0.00 0.00 84 1014.9
20260901021132 80 162 0.0 1.0 0.00 0.00 0.00 83 1014.9
20260901020625 81 162 0.0 1.0 0.00 0.00 0.00 83 1014.9
20260901020124 80 162 0.0 1.0 0.00 0.00 0.00 84 1014.9
20260901015623 80 203 0.0 0.0 0.00 0.00 0.00 83 1015.0
20260901015124 80 203 0.0 0.0 0.00 0.00 0.00 83 1014.9
20260901014620 81 203 0.0 0.0 0.00 0.00 0.00 83 1014.9
20260901014122 81 203 0.0 0.0 0.00 0.00 0.00 82 1014.8
20260901013616 81 203 0.0 1.0 0.00 0.00 0.00 82 1014.8
20260901013114 81 200 1.0 3.0 0.00 0.00 0.00 82 1014.8
20260901012611 81 200 0.0 3.0 0.00 0.00 0.00 82 1014.9
20260901012110 81 211 0.0 2.0 0.00 0.00 0.00 82 1014.9
20260901011612 81 212 0.0 2.0 0.00 0.00 0.00 82 1014.9
20260901011112 81 173 0.0 2.0 0.00 0.00 0.00 82 1014.8
20260901010607 81 214 0.0 1.0 0.00 0.00 0.00 82 1014.8
20260901010105 81 214 0.0 2.0 0.00 0.00 0.00 82 1014.8
20260901005605 82 167 0.0 2.0 0.00 0.01 0.00 82 1014.8
20260901005107 82 176 0.0 2.0 0.00 0.01 0.00 82 1014.7
20260901004604 82 169 0.0 1.0 0.00 0.01 0.00 82 1014.6
20260901004104 82 146 0.0 0.0 0.00 0.02 0.00 81 1014.6
20260901003557 82 148 0.0 0.0 0.00 0.03 0.00 81 1014.6
20260901002556 82 191 0.0 1.0 0.00 0.06 0.00 80 1014.5
20260901002055 82 203 0.0 0.0 0.00 0.07 0.00 80 1014.5
20260901001555 82 193 0.0 0.0 0.00 0.08 0.00 79 1014.5
20260901000554 83 193 1.0 4.0 0.00 0.10 0.00 78 1014.5
20260901000048 83 198 1.0 5.0 0.00 0.10 0.00 78 1014.4
20260831235548 83 193 2.0 7.0 0.00 0.10 0.00 77 1014.4
20260831235046 83 158 1.0 7.0 0.00 0.10 0.00 77 1014.4
20260831234548 84 199 1.0 5.0 0.00 0.10 0.00 76 1014.4
20260831233545 85 212 1.0 3.0 0.00 0.10 0.00 74 1014.4
20260831233046 85 177 0.0 2.0 0.00 0.10 0.00 73 1014.4
20260831232542 86 193 0.0 2.0 0.00 0.10 0.00 70 1014.4
20260831232036 86 226 0.0 0.0 0.00 0.10 0.00 66 1014.4
20260831231533 86 197 0.0 2.0 0.00 0.10 0.00 66 1014.4
20260831231031 86 200 0.0 3.0 0.00 0.10 0.00 67 1014.4
20260831230532 86 208 0.0 3.0 0.00 0.10 0.00 66 1014.4
20260831230032 86 212 0.0 2.0 0.00 0.10 0.00 66 1014.5
20260831225531 86 297 1.0 3.0 0.00 0.10 0.00 66 1014.5
20260831224534 86 210 1.0 3.0 0.00 0.10 0.00 66 1014.7
20260831223019 86 290 1.0 3.0 0.00 0.10 0.00 67 1014.8
20260831222517 86 316 1.0 3.0 0.00 0.10 0.00 66 1014.9
20260831221509 86 318 0.0 1.0 0.00 0.10 0.00 67 1015.0
20260831221003 86 318 0.0 1.0 0.00 0.10 0.00 67 1015.0
20260831220502 86 311 0.0 1.0 0.00 0.10 0.00 67 1015.1
20260831220002 86 250 0.0 0.0 0.00 0.10 0.00 67 1015.1
20260831215501 86 320 0.0 2.0 0.00 0.10 0.00 68 1015.0
20260831215001 86 19 0.0 2.0 0.00 0.10 0.00 68 1015.0
20260831214501 86 57 0.0 2.0 0.00 0.10 0.00 67 1014.9
20260831213501 86 285 2.0 7.0 0.00 0.10 0.00 68 1015.1
20260831213000 86 314 1.0 7.0 0.00 0.10 0.00 67 1015.0
20260831212454 87 353 0.0 2.0 0.00 0.10 0.00 66 1014.9
20260831211444 87 20 2.0 5.0 0.00 0.10 0.00 65 1014.8
20260831210940 87 1 2.0 4.0 0.00 0.10 0.00 65 1014.8
20260831210434 87 91 2.0 4.0 0.00 0.10 0.00 64 1014.7
20260831205932 87 86 1.0 4.0 0.00 0.10 0.00 64 1014.7
20260831205426 87 318 1.0 6.0 0.00 0.10 0.00 63 1014.8
20260831204923 88 311 1.0 6.0 0.00 0.10 0.00 63 1014.8
20260831204424 88 344 1.0 4.0 0.00 0.10 0.00 63 1014.8
20260831203423 88 29 0.0 2.0 0.00 0.10 0.00 64 1014.9
20260831202925 88 269 1.0 5.0 0.00 0.10 0.00 64 1014.8
20260831201922 87 80 1.0 6.0 0.00 0.10 0.00 65 1014.9
20260831200922 88 106 1.0 6.0 0.00 0.10 0.00 65 1014.9
20260831200419 87 146 1.0 4.0 0.00 0.10 0.00 66 1014.9
20260831195920 87 179 1.0 5.0 0.00 0.10 0.00 66 1014.9
20260831195420 87 96 1.0 5.0 0.00 0.10 0.00 65 1014.9
20260831194919 87 198 1.0 4.0 0.00 0.10 0.00 66 1014.9
20260831194418 87 95 0.0 4.0 0.00 0.10 0.00 65 1015.0
20260831193920 87 29 1.0 4.0 0.00 0.10 0.00 66 1015.0
20260831193415 87 194 3.0 7.0 0.00 0.10 0.00 67 1014.9
20260831192915 87 34 4.0 7.0 0.00 0.10 0.00 66 1015.0
20260831191416 88 298 1.0 3.0 0.00 0.10 0.00 63 1015.4
20260831190916 88 338 1.0 3.0 0.00 0.10 0.00 64 1015.5
20260831190411 88 85 1.0 4.0 0.00 0.10 0.00 64 1015.5
20260831185912 88 72 1.0 4.0 0.00 0.10 0.00 65 1015.4
20260831185412 87 43 3.0 6.0 0.00 0.10 0.00 65 1015.4
20260831184410 88 96 0.0 3.0 0.00 0.10 0.00 64 1015.5
20260831183407 88 325 1.0 2.0 0.00 0.10 0.00 65 1015.5
20260831182907 88 325 1.0 3.0 0.00 0.10 0.00 64 1015.5
20260831182408 88 302 1.0 5.0 0.00 0.10 0.00 65 1015.5
20260831181906 87 98 2.0 6.0 0.00 0.10 0.00 64 1015.4
20260831181407 88 341 2.0 6.0 0.00 0.10 0.00 64 1015.5
20260831180906 89 95 1.0 3.0 0.00 0.10 0.00 62 1015.5
20260831175909 89 222 1.0 5.0 0.00 0.10 0.00 61 1015.4
20260831175407 90 119 0.0 3.0 0.00 0.10 0.00 61 1015.4
20260831174408 90 322 1.0 3.0 0.00 0.10 0.00 61 1015.6
20260831173903 90 79 1.0 4.0 0.00 0.10 0.00 62 1015.8
20260831173403 90 158 0.0 4.0 0.00 0.10 0.00 62 1015.8
20260831172903 90 80 1.0 5.0 0.00 0.10 0.00 63 1015.9
20260831172403 89 177 1.0 5.0 0.00 0.10 0.00 63 1015.9
20260831171903 89 172 2.0 5.0 0.00 0.10 0.00 63 1015.9
20260831171404 89 219 2.0 5.0 0.00 0.10 0.00 63 1016.0
20260831170859 89 200 2.0 5.0 0.00 0.10 0.00 63 1016.0
20260831165858 87 298 1.0 4.0 0.00 0.10 0.00 67 1016.1
20260831165359 87 201 0.0 4.0 0.00 0.10 0.00 66 1016.2
20260831164859 86 95 1.0 7.0 0.00 0.10 0.00 68 1016.2
20260831163854 85 20 1.0 9.0 0.00 0.10 0.00 70 1016.2
20260831163356 85 22 3.0 10.0 0.00 0.10 0.00 71 1016.3
20260831162855 85 318 3.0 10.0 0.00 0.10 0.00 70 1016.5
20260831162355 84 93 3.0 7.0 0.00 0.10 0.00 71 1016.6
20260831161856 85 98 4.0 8.0 0.00 0.10 0.00 71 1016.6
20260831161356 85 33 2.0 8.0 0.00 0.10 0.00 71 1016.5
20260831160850 85 359 1.0 5.0 0.00 0.10 0.00 70 1016.5
20260831160352 85 59 1.0 4.0 0.00 0.10 0.00 71 1016.5
20260831155852 85 93 2.0 7.0 0.00 0.10 0.00 70 1016.3
20260831154349 85 200 2.0 7.0 0.00 0.10 0.00 71 1016.2
20260831152345 84 122 2.0 6.0 0.00 0.10 0.00 75 1016.3
20260831151845 83 117 2.0 9.0 0.00 0.10 0.00 76 1016.3
20260831151342 82 95 3.0 9.0 0.00 0.10 0.00 77 1016.3
20260831150841 82 66 2.0 7.0 0.00 0.10 0.00 77 1016.4
20260831145833 82 96 3.0 8.0 0.00 0.10 0.00 77 1016.5
20260831145332 82 80 3.0 9.0 0.00 0.10 0.00 77 1016.5
20260831144832 82 107 4.0 9.0 0.00 0.10 0.00 77 1016.4
20260831144332 83 66 3.0 9.0 0.00 0.10 0.00 76 1016.4
20260831142827 82 77 2.0 8.0 0.00 0.10 0.00 78 1016.2
20260831142326 82 91 2.0 10.0 0.00 0.10 0.00 78 1016.1
20260831141826 82 86 3.0 10.0 0.00 0.10 0.00 78 1016.0
20260831141327 83 134 1.0 7.0 0.00 0.10 0.00 77 1016.1
20260831140824 82 110 1.0 6.0 0.00 0.10 0.00 79 1016.3
20260831140325 81 158 2.0 9.0 0.00 0.10 0.00 81 1016.3
20260831135326 80 19 1.0 5.0 0.00 0.10 0.00 82 1016.4
20260831134826 80 97 1.0 6.0 0.00 0.10 0.00 83 1016.4
20260831134324 80 86 2.0 6.0 0.00 0.10 0.00 84 1016.5
20260831133825 80 45 1.0 6.0 0.00 0.10 0.00 83 1016.4
20260831133317 80 105 1.0 5.0 0.00 0.10 0.00 84 1016.4
20260831132315 79 103 1.0 5.0 0.00 0.10 0.00 86 1016.6
20260831131812 78 84 1.0 4.0 0.00 0.10 0.00 86 1016.6
20260831131313 78 15 2.0 5.0 0.00 0.10 0.00 86 1016.5
20260831130814 78 96 1.0 5.0 0.00 0.10 0.00 86 1016.6
20260831125806 77 89 0.0 1.0 0.00 0.10 0.00 86 1016.6
20260831125308 77 114 0.0 0.0 0.00 0.10 0.00 86 1016.5
20260831124807 76 193 0.0 3.0 0.00 0.10 0.00 87 1016.4
20260831124308 76 72 1.0 3.0 0.00 0.10 0.00 87 1016.4
20260831123807 76 94 0.0 3.0 0.00 0.10 0.00 87 1016.4
20260831123302 76 86 0.0 2.0 0.00 0.10 0.00 87 1016.4
20260831122803 76 86 1.0 4.0 0.00 0.10 0.00 87 1016.4
20260831121259 76 90 1.0 4.0 0.00 0.10 0.00 88 1016.3
20260831120759 76 8 0.0 3.0 0.00 0.10 0.00 89 1016.3
20260831120257 75 74 0.0 0.0 0.00 0.10 0.00 89 1016.2
20260831115755 75 74 0.0 2.0 0.00 0.10 0.00 89 1016.1
20260831114756 75 44 0.0 3.0 0.00 0.10 0.00 89 1016.2
20260831113755 75 6 0.0 1.0 0.00 0.10 0.00 91 1016.0
20260831113250 74 8 0.0 0.0 0.00 0.10 0.00 91 1015.9
20260831112252 74 6 0.0 0.0 0.00 0.10 0.00 92 1015.7
20260831111750 74 8 0.0 2.0 0.00 0.10 0.00 92 1015.7
20260831110752 74 19 1.0 3.0 0.00 0.10 0.00 93 1015.8
20260831110250 73 60 1.0 4.0 0.00 0.10 0.00 93 1015.8
20260831105746 73 47 0.0 4.0 0.00 0.10 0.00 94 1015.7
20260831105246 73 97 0.0 1.0 0.00 0.10 0.00 94 1015.5
20260831104746 73 98 0.0 2.0 0.00 0.10 0.00 95 1015.5
20260831103745 73 162 0.0 0.0 0.00 0.10 0.00 95 1015.3
20260831103245 73 162 0.0 0.0 0.00 0.10 0.00 95 1015.2
20260831102743 73 162 0.0 0.0 0.00 0.10 0.00 95 1015.1
20260831102240 73 160 0.0 0.0 0.00 0.10 0.00 94 1015.2
20260831100740 73 160 0.0 0.0 0.00 0.10 0.00 95 1015.3
20260831095737 72 160 0.0 0.0 0.00 0.10 0.00 95 1015.2
20260831095236 73 149 0.0 0.0 0.00 0.10 0.00 94 1015.2
20260831094732 73 148 0.0 0.0 0.00 0.10 0.00 94 1015.2
20260831093734 73 146 0.0 0.0 0.00 0.10 0.00 94 1015.3
20260831093233 73 147 0.0 0.0 0.00 0.10 0.00 94 1015.3
20260831091728 73 198 0.0 1.0 0.00 0.10 0.00 94 1015.2
20260831090227 73 95 0.0 0.0 0.00 0.10 0.00 93 1015.1
20260831085722 73 88 0.0 1.0 0.00 0.10 0.00 93 1015.1
20260831085223 73 87 0.0 2.0 0.00 0.10 0.00 93 1015.0
20260831084720 73 86 0.0 2.0 0.00 0.10 0.00 93 1015.1
20260831084221 73 97 0.0 3.0 0.00 0.10 0.00 93 1015.1
20260831083721 74 34 0.0 3.0 0.00 0.10 0.00 93 1015.1
20260831083222 74 102 0.0 1.0 0.00 0.10 0.00 93 1015.1
20260831082714 74 102 0.0 2.0 0.00 0.10 0.00 93 1015.1
20260831081709 74 32 1.0 4.0 0.00 0.10 0.00 94 1015.2
20260831081209 74 25 1.0 4.0 0.00 0.10 0.00 94 1015.1
20260831080710 74 30 0.0 3.0 0.00 0.10 0.00 94 1015.1
20260831080204 74 84 0.0 1.0 0.00 0.10 0.00 94 1015.0
20260831075703 74 71 0.0 1.0 0.00 0.10 0.00 94 1014.9
20260831075204 74 70 0.0 1.0 0.00 0.10 0.00 94 1014.9
20260831074703 74 70 0.0 1.0 0.00 0.10 0.00 95 1014.9
20260831074202 74 69 0.0 0.0 0.00 0.10 0.00 95 1014.9
20260831072658 74 17 0.0 0.0 0.00 0.10 0.00 95 1014.9
20260831072159 74 1 0.0 0.0 0.00 0.10 0.00 95 1014.9
20260831071657 74 0 0.0 0.0 0.00 0.10 0.00 94 1014.9
20260831071156 74 0 0.0 0.0 0.00 0.10 0.00 94 1015.0
20260831070654 74 1 0.0 0.0 0.00 0.10 0.00 94 1015.0
20260831070153 74 1 0.0 0.0 0.00 0.10 0.00 94 1015.0
20260831065652 74 1 0.0 0.0 0.00 0.10 0.00 94 1015.0
20260831065153 74 1 0.0 0.0 0.00 0.10 0.00 94 1015.1
20260831064652 74 0 0.0 1.0 0.00 0.10 0.00 94 1015.2
20260831064150 74 1 0.0 1.0 0.00 0.10 0.00 94 1015.2
20260831063142 74 1 0.0 0.0 0.00 0.10 0.00 94 1015.2
20260831062640 74 1 0.0 0.0 0.00 0.10 0.00 93 1015.2
20260831062139 74 0 0.0 0.0 0.00 0.10 0.00 93 1015.2
20260831061137 74 1 0.0 0.0 0.00 0.10 0.00 92 1015.3
20260831060630 74 1 0.0 0.0 0.00 0.10 0.00 92 1015.4
20260831060131 75 1 0.0 0.0 0.00 0.10 0.00 92 1015.4
20260831055630 75 1 0.0 0.0 0.00 0.10 0.00 91 1015.5
20260831054133 75 359 0.0 0.0 0.00 0.10 0.00 91 1015.4
20260831053624 75 0 0.0 0.0 0.00 0.10 0.00 91 1015.4
20260831053124 75 359 0.0 0.0 0.00 0.10 0.00 90 1015.4
20260831052624 75 1 0.0 0.0 0.00 0.10 0.00 90 1015.4
20260831051625 76 0 0.0 2.0 0.00 0.10 0.00 90 1015.3
20260831051125 76 359 0.0 2.0 0.00 0.10 0.00 90 1015.4
20260831050623 76 349 0.0 3.0 0.00 0.10 0.00 91 1015.5
20260831050124 76 359 0.0 3.0 0.00 0.10 0.00 91 1015.5
20260831045629 75 319 0.0 2.0 0.00 0.10 0.00 91 1015.7
20260831045121 75 323 0.0 2.0 0.00 0.10 0.00 92 1015.7
20260831044619 75 290 0.0 1.0 0.00 0.10 0.00 92 1015.6
20260831044119 75 217 0.0 2.0 0.00 0.10 0.00 93 1015.7
20260831043616 75 224 0.0 2.0 0.00 0.10 0.00 93 1015.7
20260831043115 75 232 0.0 2.0 0.00 0.10 0.00 93 1015.7
20260831042116 75 301 0.0 0.0 0.00 0.10 0.00 93 1015.7
20260831041613 75 300 0.0 0.0 0.00 0.10 0.00 93 1015.7